Nadezhda 4 Rocket - Orbit

View from above orbital plane
View from above orbital plane
View from above satellite
View from above satellite

Ground track
Ground track

The orbit data is extracted from the following two-line orbital elements,

1 23180U 94041B   13138.87437760  .00000159  00000-0  14344-3 0  2133
2 23180 082.9444 319.9087 0030308 083.9330 007.8691 13.77785729947674
Epoch (UTC): 18 May 2013 20:59:06
Eccentricity: 0.0030308
inclination: 82.9444°
perigee height: 949 km
apogee height: 994 km
right ascension of ascending node: 319.9087°
argument of perigee: 83.9330°
revolutions per day: 13.77785729
mean anomaly at epoch: 7.8691°
orbit number at epoch: 94767

The dashed part of the orbit path shows where the satellite is in the earth's shadow,  

Developed and maintained by Chris Peat, Heavens-Above GmbH. Please read the updated FAQ before sending e-mail. Imprint. DLR